FW1857 Anacortes WA US current weather conditions

sailwx.info

Wind from 210

Air temperature 20.0° C
Dewpoint 10.4° C

Last reported at 2020-Aug-14 00:05 UTC.
Time now 2020-Aug-14 00:58 UTC

Location: N 48°32' W 122°35'.
View on Google Maps.

See reports from other nearby stations

  
Tides and Currents Weather Stations Pressure Air Temp Water Temp Dewpoint Dewpoint Depression Visibility Wind Speed Wind Dir Waves Ship Positions
date/time (UTC)wind fromknots sea level pressurealtimeterstation pressurevisibilityair tempwater tempwave heightnotes
2020-Aug-14 00:05 210 20.0
2020-Aug-13 23:10 205 20.6
2020-Aug-13 23:05 200 20.6
2020-Aug-13 23:00 210 20.6
2020-Aug-13 22:55 209 20.6
2020-Aug-13 22:50 219 20.6
2020-Aug-13 22:45 209 20.6
2020-Aug-13 22:40 212 20.6
2020-Aug-13 22:35 205 20.6
2020-Aug-13 22:25 217 20.6
2020-Aug-13 22:21 203 20.6
2020-Aug-13 22:16 198 20.6
2020-Aug-13 22:11 206 20.6
2020-Aug-13 22:05 210 20.6
2020-Aug-13 22:04 210 20.6
2020-Aug-13 21:55 175 20.6
2020-Aug-13 21:51 182 20.0
2020-Aug-13 21:47 223 20.0
2020-Aug-13 21:40 206 20.0
2020-Aug-13 21:36 214 20.0
2020-Aug-13 21:33 214 20.0
2020-Aug-13 21:25 212 20.0
2020-Aug-13 21:20 208 0 gusting 4 19.4
2020-Aug-13 21:16 224 19.4
2020-Aug-13 21:10 214 19.4
2020-Aug-13 21:05 206 19.4
2020-Aug-13 21:01 210 18.9
2020-Aug-13 20:55 213 18.9
2020-Aug-13 20:50 211 18.9
2020-Aug-13 20:46 213 18.9
2020-Aug-13 20:40 206 0 gusting 2 18.9
2020-Aug-13 20:31 211 18.3
2020-Aug-13 20:25 209 18.3
2020-Aug-13 20:20 221 18.3
2020-Aug-13 20:16 219 18.3
2020-Aug-13 20:10 219 17.8
2020-Aug-13 20:05 206 17.8
2020-Aug-13 20:00 221 17.8
2020-Aug-13 19:55 221 17.8
2020-Aug-13 19:50 221 17.2
2020-Aug-13 19:46 217 17.2
2020-Aug-13 19:40 217 17.2
2020-Aug-13 19:35 217 17.2
2020-Aug-13 19:30 217 16.7
2020-Aug-13 19:25 205 16.7
2020-Aug-13 19:20 206 16.7
2020-Aug-13 19:15 206 16.7
2020-Aug-13 19:10 199 16.1
2020-Aug-13 19:05 224 16.1
2020-Aug-13 19:01 224 16.1
2020-Aug-13 18:55 224 16.1
2020-Aug-13 18:50 224 16.1
2020-Aug-13 18:46 224 16.1
2020-Aug-13 18:40 224 16.1
2020-Aug-13 18:35 224 16.1
2020-Aug-13 18:30 215 16.1
2020-Aug-13 18:25 214 16.1
2020-Aug-13 18:20 214 16.1
2020-Aug-13 18:16 214 16.1
2020-Aug-13 18:10 214 16.1
2020-Aug-13 18:05 214 16.1
2020-Aug-13 18:00 214 16.1
2020-Aug-13 17:55 214 15.6
2020-Aug-13 17:50 214 15.6
2020-Aug-13 17:45 207 15.6
2020-Aug-13 17:40 205 15.6
2020-Aug-13 17:35 205 15.6
2020-Aug-13 17:30 203 15.6
2020-Aug-13 17:25 203 15.0
2020-Aug-13 17:20 203 15.0
2020-Aug-13 17:10 203 15.0
2020-Aug-13 17:05 203 14.4
2020-Aug-13 17:00 203 14.4
2020-Aug-13 16:50 203 13.9
2020-Aug-13 16:40 336 13.9
2020-Aug-13 16:35 336 13.9
2020-Aug-13 16:30 336 13.9
2020-Aug-13 16:25 336 13.3
2020-Aug-13 16:20 338 13.3
2020-Aug-13 16:15 338 13.3
2020-Aug-13 16:10 338 13.3
2020-Aug-13 16:05 338 13.3
2020-Aug-13 16:00 338 13.3
2020-Aug-13 15:55 338 12.8
2020-Aug-13 15:50 338 12.8
2020-Aug-13 15:40 338 12.8
2020-Aug-13 15:35 338 12.8
2020-Aug-13 15:25 006 12.8
2020-Aug-13 15:20 006 12.8
2020-Aug-13 15:15 006 12.8
2020-Aug-13 15:10 006 12.8
2020-Aug-13 15:05 006 12.2
2020-Aug-13 15:01 006 12.2
2020-Aug-13 14:55 006 12.2
2020-Aug-13 14:50 356 12.2
2020-Aug-13 14:45 354 12.2
2020-Aug-13 14:40 354 12.2
2020-Aug-13 14:35 354 11.7
2020-Aug-13 14:31 354 11.7
2020-Aug-13 14:25 354 11.7
2020-Aug-13 14:20 354 11.7
2020-Aug-13 14:16 354 11.7
2020-Aug-13 14:11 354 11.7
2020-Aug-13 14:05 354 11.7
2020-Aug-13 14:01 323 11.7
2020-Aug-13 13:55 323 11.1
2020-Aug-13 13:50 323 11.1
2020-Aug-13 13:45 323 11.1
2020-Aug-13 13:40 323 11.1
2020-Aug-13 13:35 322 11.1
2020-Aug-13 13:30 323 11.7
2020-Aug-13 13:25 323 11.7
2020-Aug-13 13:20 323 11.7
2020-Aug-13 13:15 323 11.7
2020-Aug-13 13:10 323 11.7
2020-Aug-13 13:05 323 11.7
2020-Aug-13 13:00 323 11.7
2020-Aug-13 12:55 323 11.7
2020-Aug-13 12:50 323 11.7
2020-Aug-13 12:45 323 11.7
2020-Aug-13 12:40 323 11.7
2020-Aug-13 12:35 323 11.7
2020-Aug-13 12:30 323 11.7
2020-Aug-13 12:25 323 11.1
2020-Aug-13 12:20 323 11.1
2020-Aug-13 12:16 322 11.1
2020-Aug-13 12:10 322 11.1
2020-Aug-13 12:05 323 11.7
2020-Aug-13 12:00 323 11.7
2020-Aug-13 11:55 323 11.7
2020-Aug-13 11:50 323 11.7
2020-Aug-13 11:45 323 11.7
2020-Aug-13 11:40 323 11.7
2020-Aug-13 11:35 323 11.7
2020-Aug-13 11:30 323 11.7
2020-Aug-13 11:25 323 11.7
2020-Aug-13 11:20 323 11.7
2020-Aug-13 11:10 323 11.7
2020-Aug-13 11:05 323 11.7
2020-Aug-13 10:55 323 11.7
2020-Aug-13 10:50 323 11.7
2020-Aug-13 10:40 323 11.7
2020-Aug-13 10:35 323 11.7
2020-Aug-13 10:30 323 11.7
2020-Aug-13 10:25 322 11.7
2020-Aug-13 10:20 323 11.7
2020-Aug-13 10:15 323 11.7
2020-Aug-13 10:10 323 11.7
2020-Aug-13 10:05 323 11.7
2020-Aug-13 09:55 323 12.2
2020-Aug-13 09:50 323 12.2
2020-Aug-13 09:45 323 12.2
2020-Aug-13 09:40 322 12.2
2020-Aug-13 09:31 323 12.8
2020-Aug-13 09:25 322 12.8
2020-Aug-13 09:21 323 12.8
2020-Aug-13 09:16 323 12.8
2020-Aug-13 09:10 323 12.8
2020-Aug-13 09:05 323 12.8
2020-Aug-13 09:02 322 12.8
2020-Aug-13 08:50 322 12.8
2020-Aug-13 08:48 263 12.8
2020-Aug-13 08:40 263 12.8
2020-Aug-13 08:35 263 12.8
2020-Aug-13 08:32 263 12.8
2020-Aug-13 08:25 263 12.8
2020-Aug-13 08:20 263 12.8
2020-Aug-13 08:16 263 12.8
2020-Aug-13 08:10 263 12.8
2020-Aug-13 08:05 263 12.8
2020-Aug-13 08:02 263 12.8
2020-Aug-13 07:56 263 12.8
2020-Aug-13 07:50 263 12.8
2020-Aug-13 07:47 263 12.8
2020-Aug-13 07:40 263 12.8
2020-Aug-13 07:36 263 13.3
2020-Aug-13 07:31 263 13.3
2020-Aug-13 07:26 263 13.3
2020-Aug-13 07:20 263 13.3
2020-Aug-13 07:16 263 13.3
2020-Aug-13 07:10 263 13.3
2020-Aug-13 07:05 263 13.3
2020-Aug-13 07:01 263 13.3
2020-Aug-13 06:55 263 13.9
2020-Aug-13 06:50 263 13.9
2020-Aug-13 06:45 263 13.9
2020-Aug-13 06:40 263 13.9
2020-Aug-13 06:35 263 13.9
2020-Aug-13 06:30 263 13.9
2020-Aug-13 06:25 263 13.9
2020-Aug-13 06:20 263 13.9
2020-Aug-13 06:15 263 13.9
2020-Aug-13 06:10 263 14.4
2020-Aug-13 06:05 263 14.4
2020-Aug-13 06:01 263 14.4
2020-Aug-13 05:55 263 14.4
2020-Aug-13 05:50 263 14.4
2020-Aug-13 05:46 263 14.4
2020-Aug-13 05:40 210 14.4
2020-Aug-13 05:35 210 13.9
2020-Aug-13 05:30 210 13.9
2020-Aug-13 05:25 210 13.9
2020-Aug-13 05:20 210 13.9
2020-Aug-13 05:15 210 13.9
2020-Aug-13 05:10 210 13.9
2020-Aug-13 05:05 210 14.4
2020-Aug-13 05:01 210 14.4
2020-Aug-13 04:55 210 14.4
2020-Aug-13 04:50 210 14.4
2020-Aug-13 04:40 210 14.4
2020-Aug-13 04:35 210 14.4
2020-Aug-13 04:31 210 14.4
2020-Aug-13 04:25 210 14.4
2020-Aug-13 04:20 210 14.4
2020-Aug-13 04:16 210 14.4
2020-Aug-13 04:10 210 14.4
2020-Aug-13 04:05 210 15.0
2020-Aug-13 04:00 210 15.0
2020-Aug-13 03:55 210 15.0
2020-Aug-13 03:50 210 15.0
2020-Aug-13 03:45 210 15.0
2020-Aug-13 03:40 210 15.0
2020-Aug-13 03:35 210 15.0
2020-Aug-13 03:30 210 15.6
2020-Aug-13 03:25 210 15.6
2020-Aug-13 03:20 210 15.6
2020-Aug-13 03:15 210 15.6
2020-Aug-13 03:10 210 16.1
2020-Aug-13 03:05 208 16.1
2020-Aug-13 03:01 208 16.1
2020-Aug-13 02:55 208 16.1
2020-Aug-13 02:50 208 16.7
2020-Aug-13 02:45 208 16.7
2020-Aug-13 02:40 208 16.7
2020-Aug-13 02:35 208 17.2
2020-Aug-13 02:30 208 17.2
2020-Aug-13 02:25 208 17.2
2020-Aug-13 02:20 208 17.2
2020-Aug-13 02:16 208 17.2
2020-Aug-13 02:10 205 17.8
2020-Aug-13 02:05 219 17.8
2020-Aug-13 02:01 210 17.8
2020-Aug-13 01:55 223 17.8
2020-Aug-13 01:50 223 18.3
2020-Aug-13 01:45 220 18.3
2020-Aug-13 01:40 220 18.3
2020-Aug-13 01:35 225 18.3
2020-Aug-13 01:30 225 18.3
2020-Aug-13 01:25 225 18.3
2020-Aug-13 01:20 225 18.3
2020-Aug-13 01:15 226 18.9
2020-Aug-13 01:10 193 18.9
2020-Aug-13 01:05 209 18.9
2020-Aug-13 01:00 210 18.9
2020-Aug-13 00:55 212 18.9
2020-Aug-13 00:50 212 18.9
2020-Aug-13 00:45 213 18.9
2020-Aug-13 00:40 222 18.9
2020-Aug-13 00:35 210 18.9
2020-Aug-13 00:30 213 19.4
2020-Aug-13 00:25 211 19.4
2020-Aug-13 00:20 220 19.4
2020-Aug-13 00:15 211 19.4
2020-Aug-13 00:10 212 19.4
2020-Aug-13 00:05 214 19.4
2020-Aug-13 00:00 214 19.4
2020-Aug-12 23:55 211 19.4
2020-Aug-12 23:50 214 19.4
2020-Aug-12 23:45 214 0 gusting 2 19.4
2020-Aug-12 23:40 202 0 gusting 3 19.4
2020-Aug-12 23:35 214 19.4
2020-Aug-12 23:30 210 0 gusting 3 19.4
2020-Aug-12 23:25 213 0 gusting 3 19.4
2020-Aug-12 23:20 213 20.0
2020-Aug-12 23:15 213 19.4
2020-Aug-12 23:10 201 0 gusting 3 19.4
2020-Aug-12 23:00 205 0 gusting 3 19.4
2020-Aug-12 22:55 212 0 gusting 2 20.0
2020-Aug-12 22:50 212 20.0
2020-Aug-12 22:40 211 20.0
2020-Aug-12 22:35 206 20.0
2020-Aug-12 22:25 200 20.0
2020-Aug-12 22:20 209 0 gusting 2 20.0
2020-Aug-12 22:10 203 20.0
2020-Aug-12 22:05 204 20.0
2020-Aug-12 22:00 211 0 gusting 4 20.0
2020-Aug-12 21:55 221 20.0
2020-Aug-12 21:50 212 0 gusting 3 20.0
2020-Aug-12 21:45 210 20.0
2020-Aug-12 21:35 207 20.0
2020-Aug-12 21:30 207 20.0
2020-Aug-12 21:25 212 20.0
2020-Aug-12 21:20 212 19.4
2020-Aug-12 21:11 210 18.9
2020-Aug-12 21:05 210 18.9
2020-Aug-12 21:02 199 0 gusting 2 18.3
2020-Aug-12 20:55 216 18.3
2020-Aug-12 20:51 202 18.3
2020-Aug-12 20:46 221 18.3
2020-Aug-12 20:40 195 17.8
2020-Aug-12 20:35 195 17.8
2020-Aug-12 20:31 206 17.8
2020-Aug-12 20:25 206 17.8
2020-Aug-12 20:20 217 17.2
2020-Aug-12 20:16 210 17.2
2020-Aug-12 20:10 208 17.2
2020-Aug-12 20:05 214 17.2
2020-Aug-12 20:01 215 17.2
2020-Aug-12 19:55 215 17.2
2020-Aug-12 19:50 215 17.2
2020-Aug-12 19:46 219 17.2
2020-Aug-12 19:41 219 17.2
2020-Aug-12 19:35 219 17.2
2020-Aug-12 19:31 219 17.2
2020-Aug-12 19:25 219 16.7
2020-Aug-12 19:20 219 16.7
2020-Aug-12 19:15 219 16.7
2020-Aug-12 19:10 219 16.7
2020-Aug-12 19:06 219 16.7
2020-Aug-12 19:01 218 16.1
2020-Aug-12 18:55 217 16.1
2020-Aug-12 18:50 217 16.1
2020-Aug-12 18:46 250 16.1
2020-Aug-12 18:40 250 16.1
2020-Aug-12 18:35 250 16.7
2020-Aug-12 18:31 250 16.7
2020-Aug-12 18:25 250 16.1
2020-Aug-12 18:20 250 16.1
2020-Aug-12 18:16 250 16.1
2020-Aug-12 18:10 250 16.1
2020-Aug-12 18:05 250 16.1
2020-Aug-12 18:00 250 16.1
2020-Aug-12 17:55 250 16.1
2020-Aug-12 17:50 250 16.1
2020-Aug-12 17:45 250 15.6
2020-Aug-12 17:40 250 15.6
2020-Aug-12 17:35 250 15.6
2020-Aug-12 17:31 250 15.6
2020-Aug-12 17:25 250 15.6
2020-Aug-12 17:20 250 15.6
2020-Aug-12 17:15 250 15.6
2020-Aug-12 17:10 250 15.6
2020-Aug-12 17:05 250 15.0
2020-Aug-12 17:00 250 15.0
2020-Aug-12 16:55 250 15.0
2020-Aug-12 16:50 250 15.0
2020-Aug-12 16:40 250 15.0
2020-Aug-12 16:35 250 15.0
2020-Aug-12 16:25 236 14.4
2020-Aug-12 16:20 236 14.4
2020-Aug-12 16:15 232 13.9
2020-Aug-12 16:10 232 13.9
2020-Aug-12 16:05 232 13.9
2020-Aug-12 16:00 232 13.9
2020-Aug-12 15:55 230 13.9
2020-Aug-12 15:50 250 13.9
2020-Aug-12 15:36 250 13.3
2020-Aug-12 15:31 250 13.3
2020-Aug-12 15:25 250 13.3
2020-Aug-12 15:21 250 13.3
2020-Aug-12 15:16 250 13.3
2020-Aug-12 15:11 250 13.3
2020-Aug-12 15:05 224 13.3
2020-Aug-12 15:01 224 13.3
2020-Aug-12 14:55 223 13.3
2020-Aug-12 14:50 224 13.3
2020-Aug-12 14:47 223 12.8
2020-Aug-12 14:40 223 12.8
2020-Aug-12 14:36 224 12.8
2020-Aug-12 14:32 223 12.8
2020-Aug-12 14:25 223 12.8
2020-Aug-12 14:20 223 12.8
2020-Aug-12 14:16 223 12.8
2020-Aug-12 14:10 221 12.8
2020-Aug-12 14:05 221 12.8
2020-Aug-12 14:01 221 12.8
2020-Aug-12 13:56 221 12.2
2020-Aug-12 13:50 221 12.2
2020-Aug-12 13:47 221 12.2
2020-Aug-12 13:40 221 12.2
2020-Aug-12 13:35 221 12.2
2020-Aug-12 13:31 221 12.2
2020-Aug-12 13:25 221 11.7
2020-Aug-12 13:20 221 11.7
2020-Aug-12 13:16 221 11.7
2020-Aug-12 13:10 221 11.7
2020-Aug-12 13:05 221 11.7
2020-Aug-12 13:01 221 11.7
2020-Aug-12 12:55 217 11.7
2020-Aug-12 12:51 207 11.7
2020-Aug-12 12:46 207 11.7
2020-Aug-12 12:41 207 11.7
2020-Aug-12 12:35 207 11.7
2020-Aug-12 12:30 207 11.7
2020-Aug-12 12:25 207 11.7
2020-Aug-12 12:21 207 11.7
2020-Aug-12 12:16 207 11.7
2020-Aug-12 12:10 207 11.7
2020-Aug-12 12:05 207 11.7
2020-Aug-12 12:01 207 11.7
2020-Aug-12 11:56 207 11.7
2020-Aug-12 11:50 207 11.7
2020-Aug-12 11:46 207 11.7
2020-Aug-12 11:40 207 11.7
2020-Aug-12 11:35 207 11.7
2020-Aug-12 11:31 207 11.7
2020-Aug-12 11:25 207 11.7
2020-Aug-12 11:20 207 11.7
2020-Aug-12 11:15 207 12.2
2020-Aug-12 11:10 207 12.2
2020-Aug-12 11:05 207 12.2
2020-Aug-12 11:00 207 12.2
2020-Aug-12 10:55 207 12.2
2020-Aug-12 10:50 207 12.2
2020-Aug-12 10:46 207 12.2
2020-Aug-12 10:40 207 12.2
2020-Aug-12 10:35 207 12.2
2020-Aug-12 10:31 207 12.2
2020-Aug-12 10:25 207 12.2
2020-Aug-12 10:20 207 12.2
2020-Aug-12 10:15 207 12.2
2020-Aug-12 10:10 207 11.7
2020-Aug-12 10:05 208 11.7
2020-Aug-12 10:00 207 11.7
2020-Aug-12 09:55 207 11.7
2020-Aug-12 09:50 207 12.2
2020-Aug-12 09:45 207 12.2
2020-Aug-12 09:40 207 12.2
2020-Aug-12 09:35 207 12.2
2020-Aug-12 09:30 207 12.2
2020-Aug-12 09:25 207 12.2
2020-Aug-12 09:20 207 12.2
2020-Aug-12 09:15 207 12.2
2020-Aug-12 09:10 207 12.2
2020-Aug-12 09:05 207 12.2
2020-Aug-12 09:00 207 12.2
2020-Aug-12 08:55 207 12.2
2020-Aug-12 08:46 207 12.8
2020-Aug-12 08:40 207 12.8
2020-Aug-12 08:35 207 12.8
2020-Aug-12 08:30 207 12.8
2020-Aug-12 08:25 207 12.8
2020-Aug-12 08:15 207 12.8
2020-Aug-12 08:10 207 12.8
2020-Aug-12 08:05 207 12.8
2020-Aug-12 07:55 220 12.8
2020-Aug-12 07:50 220 12.8
2020-Aug-12 07:45 220 12.8
2020-Aug-12 07:40 220 12.8
2020-Aug-12 07:35 220 12.8
2020-Aug-12 07:25 219 12.8
2020-Aug-12 07:20 219 12.8
2020-Aug-12 07:15 219 12.8
2020-Aug-12 07:10 220 12.8
2020-Aug-12 07:05 220 12.8
2020-Aug-12 07:00 220 12.8
2020-Aug-12 06:55 220 12.8
2020-Aug-12 06:50 220 13.3
2020-Aug-12 06:45 220 13.3
2020-Aug-12 06:40 220 13.3
2020-Aug-12 06:35 220 13.3
2020-Aug-12 06:21 206 13.3
2020-Aug-12 06:17 222 13.3
2020-Aug-12 06:11 229 13.3
2020-Aug-12 06:06 229 13.3
2020-Aug-12 06:01 225 13.3
2020-Aug-12 05:56 248 13.3
2020-Aug-12 05:50 255 13.3
2020-Aug-12 05:46 255 13.3
2020-Aug-12 05:41 255 13.3
2020-Aug-12 05:40 255 13.3
2020-Aug-12 05:31 309 13.3
2020-Aug-12 05:26 309 13.3
2020-Aug-12 05:20 309 13.3
2020-Aug-12 05:16 309 13.3
2020-Aug-12 05:10 309 13.9
2020-Aug-12 05:06 309 13.9
2020-Aug-12 05:02 309 13.9
2020-Aug-12 04:56 309 13.9
2020-Aug-12 04:51 309 13.9
2020-Aug-12 04:47 309 13.9
2020-Aug-12 04:41 309 13.9
2020-Aug-12 04:35 309 13.9
2020-Aug-12 04:31 309 13.9
2020-Aug-12 04:26 309 13.9
2020-Aug-12 04:20 309 13.9
2020-Aug-12 04:16 309 14.4
2020-Aug-12 04:11 309 14.4
2020-Aug-12 04:06 308 14.4
2020-Aug-12 04:01 226 14.4
2020-Aug-12 03:56 224 14.4
2020-Aug-12 03:50 224 14.4
2020-Aug-12 03:47 226 14.4
2020-Aug-12 03:40 206 14.4
2020-Aug-12 03:31 221 14.4
2020-Aug-12 03:25 231 15.0
2020-Aug-12 03:20 221 15.0
2020-Aug-12 03:16 245 15.0
2020-Aug-12 03:10 251 15.0
2020-Aug-12 03:05 219 15.0
2020-Aug-12 03:01 219 15.0
2020-Aug-12 02:55 311 15.0
2020-Aug-12 02:50 250 15.0
2020-Aug-12 02:46 306 15.6
2020-Aug-12 02:40 224 15.6
2020-Aug-12 02:35 224 15.6
2020-Aug-12 02:25 224 16.1
2020-Aug-12 02:20 224 16.1
2020-Aug-12 02:16 224 16.1
2020-Aug-12 02:11 224 16.1
2020-Aug-12 02:05 225 16.1
2020-Aug-12 02:01 257 16.1
2020-Aug-12 01:55 257 16.1
2020-Aug-12 01:50 256 16.1
2020-Aug-12 01:46 257 16.1
2020-Aug-12 01:40 256 16.7
2020-Aug-12 01:35 256 16.7
2020-Aug-12 01:30 256 16.7
2020-Aug-12 01:25 256 16.7
2020-Aug-12 01:20 256 17.2
2020-Aug-12 01:16 256 17.2
2020-Aug-12 01:10 256 17.2
2020-Aug-12 01:05 256 17.2
2020-Aug-12 01:00 256 17.2
2020-Aug-12 00:55 256 17.2
2020-Aug-12 00:50 256 17.8
2020-Aug-12 00:46 256 17.8
2020-Aug-12 00:40 256 17.8
2020-Aug-12 00:35 256 17.8
2020-Aug-12 00:31 256 18.3
2020-Aug-12 00:25 256 18.3
2020-Aug-12 00:21 256 18.9
2020-Aug-12 00:16 256 18.9
2020-Aug-12 00:10 256 18.9
2020-Aug-12 00:05 256 18.9
2020-Aug-12 00:01 256 18.9